Total_Precipitation_Accumulation
0.04 0.04 0.03 0.03 0.04 0.06 0.06 0.05 0.05 0.06 0.08 0.09 0.10 0.11 0.13 0.13 0.14 0.12 0.10 0.09 0.08 0.08 0.13 0.26 0.46 0.65 0.81 0.96 1.09 1.01 0.99 0.86 0.60 0.45 0.44 0.52 0.58 0.63 0.63 0.68 0.66 0.54 0.49
0.01 0.01 0.01 0.02 0.02 0.02 0.02 0.01 0.01 0.01 0.01 0.03 0.04 0.06 0.09 0.10 0.11 0.13 0.13 0.14 0.12 0.10 0.11 0.17 0.28 0.53 0.74 0.87 1.04 1.19 1.09 1.08 0.94 0.67 0.51 0.49 0.53 0.58 0.61 0.66 0.69 0.66 0.55
0.00 0.00 0.01 0.01 0.01 0.01 0.01 0.00 0.00 0.00 0.00 0.00 0.01 0.01 0.02 0.05 0.07 0.08 0.11 0.15 0.17 0.15 0.14 0.15 0.17 0.33 0.59 0.80 0.94 1.19 1.28 1.18 1.19 1.07 0.82 0.61 0.55 0.54 0.57 0.61 0.65 0.71 0.64
0.00 0.00 0.00 0.00 0.00 0.00 0.00 0.00 0.00 0.00 0.00 0.00 0.00 0.00 0.00 0.01 0.02 0.03 0.05 0.10 0.18 0.21 0.19 0.18 0.18 0.21 0.40 0.64 0.89 1.10 1.51 1.42 1.32 1.37 1.31 0.98 0.71 0.60 0.58 0.60 0.63 0.69 0.72
0.00 0.00 0.00 0.00 0.00 0.00 0.00 0.00 0.00 0.00 0.00 0.00 0.00 0.00 0.00 0.00 0.01 0.02 0.03 0.05 0.09 0.17 0.23 0.23 0.22 0.19 0.25 0.44 0.70 0.97 1.44 1.78 1.60 1.48 1.52 1.42 1.08 0.79 0.66 0.63 0.67 0.70 0.75
0.00 0.00 0.00 0.00 0.00 0.00 0.00 0.00 0.00 0.00 0.00 0.00 0.00 0.00 0.00 0.00 0.00 0.01 0.02 0.04 0.05 0.09 0.17 0.24 0.26 0.20 0.17 0.23 0.42 0.77 1.15 1.60 1.85 1.73 1.65 1.65 1.50 1.17 0.90 0.75 0.72 0.79 0.79
0.00 0.00 0.00 0.00 0.00 0.00 0.00 0.00 0.00 0.01 0.01 0.01 0.02 0.01 0.00 0.00 0.00 0.00 0.00 0.01 0.03 0.05 0.09 0.19 0.27 0.26 0.21 0.19 0.21 0.36 0.71 1.23 1.71 1.94 1.95 1.87 1.80 1.58 1.25 0.99 0.85 0.87 0.91
0.00 0.00 0.00 0.00 0.00 0.00 0.00 0.01 0.01 0.02 0.02 0.03 0.06 0.09 0.04 0.00 0.00 0.00 0.00 0.00 0.01 0.02 0.06 0.11 0.21 0.27 0.27 0.21 0.15 0.18 0.32 0.70 1.25 1.76 2.04 2.11 2.05 1.95 1.63 1.30 1.04 0.96 1.02
0.00 0.00 0.00 0.00 0.00 0.00 0.01 0.01 0.02 0.05 0.06 0.04 0.07 0.23 0.29 0.15 0.05 0.00 0.00 0.00 0.01 0.01 0.03 0.07 0.14 0.22 0.29 0.29 0.22 0.18 0.20 0.37 0.78 1.34 1.83 2.12 2.22 2.27 2.08 1.65 1.31 1.10 1.08
0.00 0.00 0.00 0.00 0.00 0.00 0.01 0.03 0.04 0.06 0.11 0.12 0.09 0.13 0.23 0.27 0.29 0.13 0.01 0.01 0.01 0.02 0.02 0.03 0.07 0.14 0.22 0.30 0.32 0.30 0.27 0.28 0.50 0.86 1.39 1.94 2.28 2.49 2.58 2.13 1.60 1.29 1.18
0.00 0.00 0.00 0.00 0.00 0.00 0.02 0.03 0.05 0.08 0.13 0.19 0.18 0.16 0.14 0.13 0.18 0.28 0.12 0.02 0.03 0.03 0.03 0.03 0.05 0.09 0.15 0.24 0.31 0.33 0.36 0.35 0.46 0.67 0.99 1.55 2.09 2.58 2.97 2.76 2.03 1.48 1.22
0.00 0.00 0.00 0.00 0.00 0.01 0.02 0.04 0.07 0.10 0.14 0.17 0.20 0.21 0.24 0.25 0.19 0.25 0.21 0.07 0.03 0.02 0.03 0.03 0.04 0.08 0.13 0.20 0.25 0.33 0.37 0.40 0.44 0.55 0.69 1.06 1.62 2.15 2.84 3.08 2.52 1.81 1.34
0.00 0.00 0.00 0.00 0.00 0.01 0.03 0.06 0.10 0.12 0.13 0.18 0.21 0.22 0.23 0.24 0.24 0.27 0.29 0.17 0.08 0.02 0.02 0.03 0.05 0.08 0.12 0.17 0.22 0.27 0.29 0.34 0.41 0.49 0.51 0.61 0.97 1.58 2.30 3.07 3.21 2.44 1.74
0.01 0.00 0.00 0.00 0.01 0.02 0.04 0.08 0.11 0.12 0.15 0.19 0.20 0.23 0.24 0.20 0.22 0.27 0.33 0.37 0.29 0.09 0.03 0.02 0.04 0.07 0.11 0.16 0.20 0.24 0.23 0.27 0.33 0.39 0.41 0.44 0.54 0.87 1.51 2.44 3.36 3.38 2.57
0.01 0.01 0.01 0.01 0.01 0.03 0.06 0.09 0.11 0.14 0.18 0.21 0.23 0.25 0.28 0.25 0.25 0.26 0.29 0.41 0.57 0.40 0.10 0.02 0.04 0.06 0.10 0.15 0.20 0.20 0.22 0.23 0.26 0.31 0.36 0.37 0.41 0.54 0.83 1.42 2.36 3.33 3.47
0.01 0.01 0.01 0.02 0.03 0.06 0.09 0.11 0.13 0.15 0.20 0.24 0.28 0.31 0.33 0.35 0.35 0.33 0.33 0.36 0.45 0.52 0.30 0.05 0.04 0.08 0.13 0.16 0.22 0.20 0.22 0.25 0.24 0.25 0.28 0.32 0.35 0.45 0.62 0.91 1.47 2.34 3.15
0.01 0.01 0.03 0.06 0.08 0.11 0.13 0.14 0.17 0.22 0.25 0.27 0.32 0.39 0.43 0.46 0.50 0.48 0.45 0.42 0.40 0.44 0.42 0.10 0.03 0.05 0.14 0.20 0.21 0.21 0.23 0.22 0.19 0.20 0.23 0.26 0.31 0.38 0.51 0.71 1.00 1.55 2.33
0.01 0.02 0.06 0.12 0.15 0.18 0.18 0.19 0.22 0.32 0.44 0.44 0.42 0.43 0.46 0.50 0.56 0.58 0.59 0.53 0.43 0.36 0.39 0.24 0.07 0.05 0.10 0.21 0.26 0.26 0.25 0.23 0.20 0.20 0.23 0.25 0.28 0.34 0.43 0.58 0.77 1.07 1.65
0.01 0.02 0.08 0.19 0.25 0.30 0.30 0.28 0.31 0.37 0.52 0.65 0.68 0.68 0.63 0.58 0.60 0.59 0.63 0.60 0.50 0.40 0.35 0.31 0.16 0.08 0.10 0.20 0.32 0.35 0.31 0.27 0.23 0.22 0.23 0.25 0.26 0.30 0.35 0.43 0.58 0.78 1.05
0.02 0.04 0.09 0.19 0.29 0.41 0.53 0.55 0.58 0.55 0.58 0.67 0.74 0.79 0.80 0.82 0.77 0.71 0.69 0.64 0.59 0.53 0.43 0.38 0.27 0.17 0.15 0.20 0.36 0.44 0.39 0.32 0.29 0.26 0.25 0.24 0.26 0.28 0.29 0.29 0.33 0.47 0.72
0.02 0.05 0.06 0.11 0.21 0.48 0.88 0.91 0.82 0.74 0.61 0.54 0.53 0.57 0.66 0.82 0.89 0.92 0.94 0.84 0.77 0.76 0.64 0.54 0.43 0.32 0.25 0.29 0.41 0.48 0.52 0.45 0.38 0.34 0.32 0.26 0.25 0.22 0.22 0.24 0.29 0.37 0.51
0.02 0.04 0.04 0.06 0.14 0.42 0.84 0.91 0.69 0.51 0.38 0.35 0.36 0.35 0.38 0.53 0.64 0.72 0.83 0.83 0.86 0.96 0.98 0.84 0.64 0.48 0.36 0.35 0.42 0.53 0.62 0.64 0.55 0.41 0.41 0.38 0.34 0.30 0.25 0.22 0.24 0.28 0.35
0.02 0.04 0.03 0.03 0.06 0.26 0.65 0.74 0.52 0.30 0.20 0.19 0.20 0.20 0.21 0.31 0.40 0.44 0.52 0.57 0.63 0.76 0.95 1.01 0.93 0.69 0.51 0.39 0.47 0.55 0.61 0.68 0.63 0.56 0.56 0.62 0.57 0.47 0.37 0.33 0.33 0.30 0.31
0.02 0.03 0.03 0.02 0.03 0.12 0.49 0.67 0.48 0.23 0.14 0.13 0.15 0.13 0.11 0.16 0.29 0.40 0.48 0.49 0.49 0.59 0.83 1.01 1.11 1.00 0.81 0.66 0.69 0.78 0.81 0.73 0.69 0.74 0.77 0.88 0.85 0.70 0.58 0.48 0.40 0.33 0.32
0.01 0.02 0.02 0.02 0.02 0.04 0.32 0.66 0.56 0.25 0.13 0.11 0.13 0.15 0.10 0.08 0.22 0.31 0.31 0.29 0.28 0.40 0.56 0.76 0.86 0.86 0.82 0.82 0.84 0.92 0.93 0.83 0.89 1.02 1.00 1.04 1.12 1.01 0.88 0.77 0.61 0.46 0.38
0.02 0.02 0.01 0.01 0.01 0.02 0.17 0.57 0.70 0.31 0.14 0.11 0.10 0.11 0.15 0.15 0.21 0.22 0.17 0.17 0.22 0.30 0.32 0.37 0.42 0.46 0.51 0.56 0.68 0.86 0.99 0.98 1.06 1.26 1.18 1.07 1.24 1.28 1.32 1.16 0.84 0.55 0.44